Regional Weather Roundup
Issued by NWS Mobile, AL

Home | Current Version | Previous Version | Text Only | Print | Product List | Glossary On
Versions: 1 2 3 4 5 6 7 8 9 10 11 12 13 14 15 16 17 18 19 20 21 22 23 24 25 26 27 28 29 30 31 32 33 34 35 36 37 38 39 40 41 42 43 44 45 46 47 48 49 50
809
ASUS44 KMOB 122112
RWRMOB
REGIONAL WEATHER ROUNDUP
NATIONAL WEATHER SERVICE MOBILE AL
300 PM CST FRI FEB 12 2016

NOTE: "FAIR" INDICATES FEW OR NO CLOUDS BELOW 12,000 FEET WITH NO
      SIGNIFICANT WEATHER AND/OR OBSTRUCTIONS TO VISIBILITY.

  * THESE STATIONS ARE PART OF THE UNIVERSITY OF SOUTH ALABAMA
    MESONET AND ARE NOT UNDER NWS OR FAA QUALITY CONTROL.

ALZ061>064-122200-
COASTAL ALABAMA

CITY           SKY/WX    TMP DP  RH WIND       PRES   REMARKS
MOBILE REG APT MOSUNNY   74  53  48 W9        30.14F
BROOKLEY FIELD SUNNY     75  52  44 W8        30.14F
USA CAMPUS*    NOT AVBL
DOG RIVER*     NOT AVBL


CITY           SKY/WX    TMP DP  RH WIND       PRES   REMARKS
MOUNT VERNON*  NOT AVBL
SARALAND*      NOT AVBL
BAY MINETTE*   NOT AVBL
LOXLEY*        NOT AVBL
ROBERTSDALE*   NOT AVBL
FAIRHOPE*      NOT AVBL
ELBERTA*       NOT AVBL
FOLEY*         NOT AVBL
GRAND BAY*     NOT AVBL
DAUPHIN ISLND* NOT AVBL
BON SCOUR NWR* NOT AVBL
GULF SHORES    SUNNY     69  58  68 W15G23    30.15S

$$

ALZ051>060-122200-
INTERIOR SOUTHWEST AND SOUTH CENTRAL ALABAMA

CITY           SKY/WX    TMP DP  RH WIND       PRES   REMARKS
GREENVILLE     SUNNY     71  36  27 W10G23    30.10S
EVERGREEN      MOSUNNY   74  47  38 VRB5      30.11F
CASTLEBERRY*   NOT AVBL
ATMORE*        NOT AVBL
DIXIE*         NOT AVBL
ANDALUSIA/OPP  SUNNY     76  47  35 W12       30.10F
ANDALUSIA*     NOT AVBL
FLORALA APT    SUNNY     73  48  41 VRB6      30.11F
FLORALA*       NOT AVBL

$$

FLZ001>006-122200-
WESTERN FLORIDA PANHANDLE

CITY           SKY/WX    TMP DP  RH WIND       PRES   REMARKS
PENSACOLA      MOSUNNY   73  56  54 SW15      30.13S
NAS PENSACOLA  MOSUNNY   71  56  58 W10G21    30.14S
MILTON         MOSUNNY   74  51  44 NW13      30.12F
WHTNG S FIELD  MOSUNNY   78  52  40 NW8G18    30.12F


CITY           SKY/WX    TMP DP  RH WIND       PRES   REMARKS
WALNUT HILL*   NOT AVBL
JAY*           NOT AVBL
DUKE FIELD     MOSUNNY   74  50  42 NW13G21   30.10F
CRESTVIEW      SUNNY     75  49  39 W14       30.12F
VALPARAISO     MOSUNNY   70  58  66 SW14      30.10F
DESTIN         SUNNY     68  59  73 SW9G23    30.12F

$$

MSZ076-079-122200-
INTERIOR SOUTHEAST MISSISSIPPI

CITY           SKY/WX    TMP DP  RH WIND       PRES   REMARKS
LEAKESVILLE*   NOT AVBL
AGRICOLA*      NOT AVBL

$$

MARINE OBSERVATIONS

STATION/POSITION TIME  TEMP    WIND        PRES    WAVE
                       AIR SEA DIR/SP/G            HT/PER
                 (UTC) (F)     (DEG/KT/KT) (MB)    (FT/S)
PASCAGOULA       2000   64     250/ 10/ 15 1021.3F
PETIT BOIS ISLND 2000   73     260/ 18/ 21 1022.2F
GRAND BAY        1900   66     250/ 12     1023.0F
KATRINA CUT      2000   60     260/ 17       N/A
CEDAR POINT      2000   60     250/ 17     1021.3F
E DAUPHIN ISLAND 2000   65     240/ 13/ 19 1021.0F
MIDDLE BAY LIGHT 2000          230/ 17     1020.6F
USCG MOBILE BAY  2000   73 54  320/  9/ 13 1021.1F
STATE DOCKS      2000   76 53              1020.4F
MEAHER PARK      2000          170/ 10     1020.3F
WEEKS BAY        1900   65                   N/A
FORT MORGAN      2000   62     260/ 20/ 22 1020.9F
12 S ORANGE BCH  2050   65 65  250/ 17/ 21 1020.3F   4/ 4
PENSACOLA BAY    2000   70 53  220/ 11/ 15 1020.8F

$$

SELECTED LOCATIONS ACROSS THE REGION

CITY           SKY/WX    TMP DP  RH WIND       PRES   REMARKS
NEW ORLEANS    MOSUNNY   76  52  43 W13       30.17F
GULFPORT       SUNNY     74  53  48 NW10      30.14F
PASCAGOULA AP  MOSUNNY   76  53  44 W8        30.14F
PASCAGOULA*    NOT AVBL
HATTIESBURG    MOSUNNY   73  48  41 W12       30.15F
LAUREL         SUNNY     73 N/A N/A NW13      30.16F
MERIDIAN       SUNNY     69  36  29 W13       30.16S
JACKSON        MOSUNNY   68  35  29 NW13      30.20R
MONTGOMERY     SUNNY     70  37  29 W15       30.11S
TROY           SUNNY     72  42  34 W13G20    30.11R
KINSTON*       NOT AVBL
GENEVA*        NOT AVBL
ASHFORD*       NOT AVBL
DOTHAN         MOSUNNY   72  47  40 W15       30.12F
PANAMA CITY    SUNNY     69  57  65 SW15      30.11F

$$





USA.gov is the U.S. government's official web portal to all federal, state and local government web resources and services.